This demonstration page uses our WeatherBlox Daily Observations layout. Learn more.

Left ArrowRight Arrow

39.01783, -85.05884

Hourly Observations for June 18, 2017

Temp ( °F °C ) Dew Point ( °F °C ) Humidity (%) Winds ( mph kmh ) Pressure ( in mb ) Visibility ( mi km ) Precip ( " mm )
12:52 am 00:52 Mostly Cloudy 72 22.2 66 18.9 82 82 S 9 15 29.72 1006 10 16 N/A
1:52 am 01:52 Mostly Cloudy 73 22.8 66 18.9 79 79 S 7 11 29.71 1006 10 16 N/A
2:52 am 02:52 Mostly Cloudy 73 22.8 66 18.9 79 79 SSW 7 11 29.74 1007 10 16 N/A
3:52 am 03:52 Mostly Cloudy 72 22.2 66 18.9 82 82 S 3 6 29.75 1008 10 16 N/A
4:52 am 04:52 Cloudy 72 22.2 67 19.4 84 84 S 8 13 29.74 1007 10 16 N/A
5:52 am 05:52 Mostly Cloudy 73 22.8 67 19.4 81 81 S 9 15 29.74 1007 10 16 N/A
6:03 am 06:03 Mostly Cloudy with Nearby Thunderstorms 73 22.8 67 19.4 81 81 SSW 8 13 29.77 1008 10 16 N/A
6:08 am 06:08 Mostly Cloudy with Nearby Thunderstorms 73 22.8 68 20 84 84 WSW 17 28 29.77 1008 3 4 N/A
6:10 am 06:10 Mostly Cloudy with Thunderstorms 73 22.8 69 20.6 87 87 WSW 20 31 29.77 1008 7 11 0.02 0.51
6:23 am 06:23 Cloudy with Thunderstorms 72 22.2 69 20.6 91 91 WSW 9 15 29.77 1008 3 4 0.16 4.06
6:39 am 06:39 Mostly Cloudy with Thunderstorms 72 22.2 70 21.1 94 94 S 10 17 29.77 1008 4 6 0.38 9.65
6:52 am 06:52 Cloudy with Thunderstorms 71 21.7 70 21.1 96 96 S 9 15 29.75 1008 7 11 0.39 9.91
7:04 am 07:04 Mostly Cloudy with Light Rain 71 21.7 70 21.1 96 96 S 9 15 29.77 1008 7 11 N/A
7:52 am 07:52 Cloudy 73 22.8 70 21.1 90 90 S 9 15 29.76 1008 9 14 N/A
8:06 am 08:06 Cloudy with Light Rain 72 22.2 70 21.1 94 94 SW 12 19 29.77 1008 2 3 0.01 0.25
8:10 am 08:10 Cloudy with Light Rain 73 22.8 70 21.1 90 90 SW 10 17 29.77 1008 6 10 0.07 1.78
8:52 am 08:52 Cloudy 73 22.8 70 21.1 90 90 S 13 20 29.70 1006 10 16 0.08 2.03
9:52 am 09:52 Mostly Cloudy 76 24.4 72 22.2 88 88 SSW 14 22 29.68 1005 9 14 N/A
10:52 am 10:52 Mostly Cloudy 78 25.6 72 22.2 82 82 SW 18 30 29.71 1006 10 16 N/A
11:52 am 11:52 Mostly Cloudy 81 27.2 71 21.7 72 72 SSW 14 22 29.72 1007 10 16 N/A
12:52 pm 12:52 Mostly Cloudy 82 27.8 70 21.1 67 67 W 14 22 29.75 1007 10 16 N/A
1:52 pm 13:52 Mostly Cloudy 81 27.2 70 21.1 69 69 WSW 15 24 29.75 1007 10 16 N/A
2:52 pm 14:52 Mostly Cloudy 82 27.8 68 20 63 63 WSW 9 15 29.72 1006 10 16 N/A
3:52 pm 15:52 Mostly Cloudy 83 28.3 68 20 61 61 WSW 13 20 29.72 1006 10 16 N/A
4:52 pm 16:52 Mostly Cloudy 84 28.9 68 20 59 59 W 17 28 29.69 1005 10 16 N/A
5:52 pm 17:52 Partly Cloudy 83 28.3 69 20.6 63 63 WSW 15 24 29.69 1006 10 16 N/A
6:52 pm 18:52 Mostly Cloudy with Nearby Thunderstorms 81 27.2 70 21.1 69 69 WSW 6 9 29.70 1006 10 16 N/A
7:02 pm 19:02 Mostly Cloudy 81 27.2 70 21.1 69 69 W 9 15 29.68 1005 10 16 N/A
7:52 pm 19:52 Mostly Cloudy 80 26.7 70 21.1 71 71 WSW 9 15 29.72 1006 10 16 N/A
8:52 pm 20:52 Mostly Cloudy 77 25 71 21.7 82 82 WSW 7 11 29.73 1007 10 16 N/A
9:52 pm 21:52 Cloudy with Light Rain 75 23.9 69 20.6 82 82 W 9 15 29.76 1008 10 16 N/A
10:25 pm 22:25 Cloudy 75 23.9 69 20.6 82 82 W 8 13 29.77 1008 10 16 N/A
10:47 pm 22:47 Cloudy with Heavy Rain 72 22 68 20 88 88 W 13 20 29.80 1009 2 3 0.01 0.25
10:50 pm 22:50 Cloudy with Nearby Thunderstorms 70 21 68 20 94 94 NW 9 15 29.80 1009 1 1 0.15 3.81
10:52 pm 22:52 Cloudy with Nearby Thunderstorms 70 21.1 68 20 93 93 NW 8 13 29.78 1009 1 1 0.29 7.37
10:56 pm 22:56 Cloudy with Nearby Thunderstorms 70 21.1 69 20.6 97 97 NW 13 20 29.77 1008 1 2 0.06 1.52
11:05 pm 23:05 Cloudy with Heavy Rain 69 20.6 69 20.6 100 100 W 9 15 29.80 1009 1 1 0.29 7.37
11:12 pm 23:12 Cloudy with Strong Thunderstorms 69 20.6 68 20 96 96 WSW 6 9 29.80 1009 1 1 0.62 15.75

Powered by AerisWeather